User: anonymous   Login
Location: Unspecified
(17.6330°N, 0.0000°E)
Time: 21:47:41
(UTC+00:00)
Language:

ISS - Orbit

View from above orbital plane
View from above orbital plane
View from above satellite
View from above satellite

Ground track
Ground track

The orbit data is extracted from the following two-line orbital elements,

1 25544U 98067A   19200.51186468  .00016717  00000-0  10270-3 0  9020
2 25544  51.6388 200.9040 0006705 157.0745 203.0706 15.50961095 20264
Epoch (UTC): 19 July 2019 12:17:05
Eccentricity: 0.0006705
inclination: 51.6388°
perigee height: 409 km
apogee height: 418 km
right ascension of ascending node: 200.9040°
argument of perigee: 157.0745°
revolutions per day: 15.50961095
mean anomaly at epoch: 203.0706°
orbit number at epoch: 2026

The dashed part of the orbit path shows where the satellite is in the earth's shadow,  

DLR